Content
SEND FEEDBACK

Daily
Averages
Monthly
Summary
French Polynesia

PAPEETE, FRENCH POLYNESIA


Home > Oceania > French Polynesia
Elevation: 7 feet     Latitude: 17 33S     Longitude: 149 36W

WEATHER
 
SELECT A DAY
Number of Records: 217,724;   Date Range: 6/30/96 - 12/24/14
 
SHARE

PRINT THIS DATA

[ ← Previous Day ]
WEATHER ALMANAC - JULY 4, 2014
[ Next Day → ]
[ °C ]   °F
Weather ElementAverageHighLow
Temperature78.5 °F84.2 °F (10:00 am)73.4 °F (12:30 am)
Dewpoint68.1 °F73.4 °F (2:30 pm)62.6 °F (7:00 pm)
Humidity69.6 %83 % (12:30 am)54 % (11:00 am)
Barometer30.01 in30.06 in (11:00 pm)29.95 in (3:00 pm)
Wind Speed9.3 mph20.7 mph (2:00 pm)
Weather ElementAverage
Visibility7.9 mi
Wind DirectionENE (61.5 °)

Weather ElementTotal
Precipitation---
Cooling Degree Days13.8 (Base 65)
Growing Degree Days28.8 (Base 50)
Averaged from 55 records on July 4, 2014
WEATHER CONDITIONS BREAKOUT
WIND DIRECTION BREAKOUT
WEATHER BY HOUR - JULY 4, 2014
[ °C ]   °F
Local TimeTemperatureDewpointHumidityBarometerVisibilityWind DirectionWind SpeedGust SpeedPrecipitationEventsConditions
12:30 AM73.4 °F68.0 °F83 %29.98 in6.2 miVariable2.3 mphScattered Clouds
1:00 AM75.2 °F68.0 °F78 %29.98 in6.2 miEast (100°)3.5 mphPartly Cloudy
1:30 AM73.4 °F68.0 °F83 %29.98 in6.2 miVariable1.2 mphPartly Cloudy
2:00 AM74.0 °F67.0 °F73 %29.99 in16.0 miEast (100°)3.5 mphPartly Cloudy
2:00 AM75.2 °F66.2 °F73 %29.98 in6.2 miEast (100°)3.5 mphScattered Clouds
2:30 AM75.2 °F69.8 °F83 %29.98 in6.2 miENE (60°)5.8 mphScattered Clouds
3:00 AM75.2 °F68.0 °F78 %29.98 in6.2 miEast (80°)6.9 mphPartly Cloudy
3:30 AM75.2 °F68.0 °F78 %29.98 in6.2 miENE (70°)6.9 mph
4:00 AM75.2 °F68.0 °F78 %29.98 in6.2 miENE (70°)6.9 mph
4:30 AM75.2 °F68.0 °F78 %29.98 in6.2 miENE (70°)8.1 mph
5:00 AM76.0 °F68.0 °F70 %29.99 in37.0 miENE (70°)9.2 mphClear
5:00 AM77.0 °F68.0 °F74 %29.98 in6.2 miENE (70°)9.2 mph
5:30 AM75.2 °F68.0 °F78 %29.98 in6.2 miEast (100°)4.6 mphPartly Cloudy
6:00 AM75.2 °F68.0 °F78 %30.01 in6.2 miVariable3.5 mphPartly Cloudy
6:30 AM73.4 °F66.2 °F78 %30.01 in6.2 miESE (110°)4.6 mphPartly Cloudy
7:00 AM73.4 °F66.2 °F78 %30.01 in6.2 miEast (100°)3.5 mphPartly Cloudy
7:30 AM75.2 °F68.0 °F78 %30.04 in6.2 miVariable2.3 mphPartly Cloudy
8:00 AM79.0 °F67.0 °F58 %30.05 in16.0 miENE (70°)4.6 mphPartly Cloudy
8:07 AM78.8 °F68.0 °F69 %30.04 in6.2 miNE (50°)4.6 mphPartly Cloudy
8:30 AM80.6 °F68.0 °F65 %30.04 in6.2 miEast (80°)8.1 mphPartly Cloudy
9:00 AM82.4 °F69.8 °F66 %30.04 in6.2 miNE (40°)12.7 mphPartly Cloudy
9:30 AM82.4 °F69.8 °F66 %30.04 in6.2 miNE (50°)12.7 mphPartly Cloudy
10:00 AM84.2 °F69.8 °F62 %30.04 in6.2 miNE (40°)12.7 mphPartly Cloudy
10:30 AM84.2 °F71.6 °F66 %30.04 in6.2 miNE (50°)16.1 mphPartly Cloudy
11:00 AM84.0 °F70.0 °F54 %30.04 in16.0 miENE (60°)16.1 mphScattered Clouds
11:00 AM84.2 °F69.8 °F62 %30.04 in6.2 miENE (60°)16.1 mphPartly Cloudy
11:30 AM84.2 °F71.6 °F66 %30.01 in6.2 miNE (40°)15.0 mphPartly Cloudy
12:00 PM84.2 °F71.6 °F66 %30.01 in6.2 miNE (40°)16.1 mphPartly Cloudy
12:30 PM84.2 °F71.6 °F66 %30.01 in6.2 miNE (40°)18.4 mphPartly Cloudy
1:00 PM84.2 °F71.6 °F66 %29.98 in6.2 miNE (50°)17.3 mphPartly Cloudy
1:30 PM84.2 °F71.6 °F66 %29.98 in6.2 miNE (50°)18.4 mphPartly Cloudy
2:00 PM84.0 °F72.0 °F59 %29.98 in16.0 miNE (40°)20.7 mphScattered Clouds
2:00 PM84.2 °F71.6 °F66 %29.98 in6.2 miNE (40°)20.7 mphPartly Cloudy
2:30 PM84.2 °F73.4 °F70 %29.98 in6.2 miNE (50°)17.3 mphPartly Cloudy
3:00 PM82.4 °F71.6 °F70 %29.95 in6.2 miNE (50°)19.6 mphPartly Cloudy
3:30 PM82.4 °F71.6 °F70 %29.95 in6.2 miNE (50°)17.3 mphPartly Cloudy
4:00 PM82.4 °F69.8 °F66 %29.98 in6.2 miNE (50°)17.3 mphPartly Cloudy
4:30 PM82.4 °F71.6 °F70 %29.98 in6.2 miNE (50°)17.3 mphPartly Cloudy
5:00 PM80.0 °F70.0 °F65 %29.99 in16.0 miENE (60°)16.1 mphScattered Clouds
5:00 PM80.6 °F69.8 °F70 %29.98 in6.2 miENE (60°)16.1 mphPartly Cloudy
5:30 PM80.6 °F68.0 °F65 %29.98 in6.2 miENE (60°)12.7 mphPartly Cloudy
6:00 PM78.8 °F66.2 °F65 %30.01 in6.2 miEast (90°)6.9 mphPartly Cloudy
6:30 PM77.0 °F64.4 °F65 %30.01 in6.2 miEast (100°)4.6 mphPartly Cloudy
7:00 PM77.0 °F62.6 °F61 %30.01 in6.2 miEast (90°)4.6 mphPartly Cloudy
7:30 PM77.0 °F64.4 °F65 %30.01 in6.2 miEast (90°)6.9 mphPartly Cloudy
8:00 PM76.0 °F63.0 °F55 %30.04 in12.0 miEast (100°)3.5 mphScattered Clouds
8:00 PM77.0 °F62.6 °F61 %30.04 in6.2 miEast (100°)3.5 mphPartly Cloudy
8:30 PM75.2 °F62.6 °F65 %30.04 in6.2 miESE (110°)3.5 mphPartly Cloudy
9:00 PM75.2 °F64.4 °F69 %30.04 in6.2 miESE (110°)4.6 mphPartly Cloudy
9:30 PM75.2 °F64.4 °F69 %30.04 in6.2 miVariable3.5 mphPartly Cloudy
10:00 PM73.4 °F64.4 °F73 %30.04 in6.2 miVariable2.3 mphPartly Cloudy
10:30 PM73.4 °F66.2 °F78 %30.04 in6.2 miVariable2.3 mphPartly Cloudy
11:00 PM76.0 °F67.0 °F66 %30.06 in12.0 miSE (130°)6.9 mphScattered Clouds
11:00 PM75.2 °F66.2 °F73 %30.04 in6.2 miSE (130°)6.9 mphPartly Cloudy
11:30 PM75.2 °F66.2 °F73 %30.04 in6.2 miVariable1.2 mphPartly Cloudy
Hourly data recorded from NTAA, located miles away from Papeete, French Polynesia







STORIES FROM OUR PARTNERS